Home   Weather   Chatham   Past weeks
Flag for United Kingdom

Past Weather in Chatham, England, United Kingdom — Yesterday and Last 2 Weeks

Now
59 °F

Sunny.


Feels Like: 59 °F
Forecast: 69 / 48 °F
Wind: 5 mph from North

Location: Southend Airport-On-Sea

Current Time: May 22, 2019 at 11:58:54 am

Latest Report: May 22, 2019 at 11:20 am


Visibility: 10 mi

Pressure: 30.12 "Hg

Humidity: 45%

Dew Point: 37 °F

Location of ChathamLocation

Past Weather in Chatham — Graph

°F

Chatham Temperature Yesterday

Maximum temperature yesterday: 68 °F (at 2:20 pm)
Minimum temperature yesterday: 46 °F (at 4:20 am)
Average temperature yesterday: 58 °F

High & Low Weather Summary for the Past Weeks

 TemperatureHumidityPressure
High68 °F (May 21, 2:20 pm)94% (May 18, 5:20 am)30.74 "Hg (May 18, 5:20 am)
Low34 °F (May 13, 5:20 am)36% (May 14, 1:50 pm)29.27 "Hg (May 8, 2:20 pm)
Average52 °F73%30.02 "Hg
* Reported May 7 10:20 am — May 22 10:50 am, Chatham. Weather by CustomWeather, © 2019

Note: Actual official high and low records may vary slightly from our data, if they occured in-between our weather recording intervals... More about our weather records

Advertising

Chatham Weather History for the Previous 24 Hours

Scroll right to see more
 ConditionsComfort  
Time TempWeatherWind HumidityBarometerVisibility
10:50 am
Wed, May 22
59 °FSunny.No wind45%30.12 "Hg10 mi
10:20 am61 °FSunny.3 mph52%30.12 "Hg10 mi
9:50 am61 °FSunny.No wind52%30.12 "Hg10 mi
9:20 am61 °FSunny.3 mph52%30.12 "Hg10 mi
8:50 am57 °FPassing clouds.2 mph55%30.12 "HgN/A
8:20 am55 °FPassing clouds.5 mph59%30.12 "HgN/A
7:50 am55 °FPassing clouds.5 mph63%30.12 "HgN/A
7:20 am52 °FPassing clouds.5 mph67%30.12 "HgN/A
6:50 am52 °FPassing clouds.2 mph67%30.12 "HgN/A
6:20 am50 °FPassing clouds.2 mph71%30.12 "HgN/A
5:50 am50 °FPassing clouds.5 mph71%30.12 "HgN/A
3:50 am45 °FClear.5 mph93%30.12 "Hg10 mi
2:20 am46 °FFog.3 mph87%30.09 "Hg3 mi
1:20 am46 °FClear.3 mph87%30.09 "Hg4 mi
11:50 pm
Tue, May 21
48 °FClear.No wind87%30.09 "Hg5 mi
11:20 pm48 °FClear.3 mph87%30.09 "Hg5 mi
10:50 pm52 °FClear.2 mph88%30.09 "Hg5 mi
10:20 pm50 °FClear.6 mph88%30.09 "Hg5 mi
9:50 pm52 °FClear.3 mph82%30.09 "Hg4 mi
9:20 pm54 °FClear.2 mph77%30.09 "Hg4 mi
8:50 pm54 °FClear.5 mph77%30.09 "Hg4 mi
8:20 pm57 °FSunny.7 mph67%30.09 "Hg10 mi
7:50 pm57 °FSunny.7 mph77%30.07 "Hg10 mi
7:20 pm59 °FSunny.8 mph72%30.07 "Hg10 mi
6:50 pm66 °FPassing clouds.6 mph40%30.07 "HgN/A
6:20 pm66 °FPassing clouds.7 mph40%30.07 "HgN/A
5:50 pm64 °FPassing clouds.7 mph43%30.07 "HgN/A
5:20 pm64 °FPassing clouds.8 mph43%30.07 "HgN/A
4:50 pm64 °FScattered clouds.6 mph43%30.07 "HgN/A
4:20 pm68 °FScattered clouds.5 mph38%30.07 "HgN/A
3:50 pm64 °FScattered clouds.8 mph43%30.07 "HgN/A
3:20 pm64 °FScattered clouds.7 mph43%30.07 "HgN/A
2:50 pm68 °FScattered clouds.12 mph40%30.07 "HgN/A
2:20 pm68 °FPassing clouds.10 mph40%30.07 "HgN/A
1:50 pm64 °FPassing clouds.12 mph40%30.07 "HgN/A
1:20 pm66 °FPassing clouds.10 mph43%30.07 "HgN/A
12:50 pm64 °FPassing clouds.9 mph49%30.07 "HgN/A
12:20 pm66 °FPassing clouds.8 mph43%30.07 "HgN/A
11:50 am64 °FPassing clouds.12 mph46%30.04 "HgN/A
11:20 am64 °FPassing clouds.9 mph46%30.04 "HgN/A
Weather by CustomWeather, © 2019

See weather overview